Find STARLINK-37033

NORAD ID: 70592 Constellation: starlink operational
LEOCIRCULAR

リアルタイム位置

3D地球を読み込み中...

STARLINK-37033について

説明を読み込み中...

次回通過

Passes for default location (London). Set your location on the main map for personalized predictions.

高度履歴

Loading altitude history...

軌道要素

1 70592C 26099J 26122.89631944 -.00309720 00000+0 -37893-3 0 1229
2 70592 53.1634 22.5276 0005100 288.7192 218.9688 16.07401108 15
Epoch: May 2, 2026 • Age: 30 hours